EW5123 Weather Reports


time (UTC)temp
C
wind
direction
speed
KPH
gust
KPH
rain 1hr
cm
rain 24hr
cm
rain mn
cm
humidity
%
barometer
mb
20260831163459 24 170 0.0 3.2 0.00 0.53 0.00 36 988.6
20260831162959 24 150 0.0 6.4 0.00 0.53 0.00 40 988.5
20260831162458 23 319 1.6 6.4 0.00 0.53 0.00 40 988.5
20260831161958 23 342 1.6 6.4 0.00 0.53 0.00 38 988.5
20260831161456 23 347 1.6 4.8 0.00 0.53 0.00 37 988.5
20260831161007 23 324 0.0 8.0 0.00 0.53 0.00 39 988.4
20260831160957 23 349 1.6 8.0 0.00 0.53 0.00 38 988.4
20260831160000 23 265 0.0 3.2 0.00 0.53 0.00 41 988.4
20260831155956 23 326 0.0 1.6 0.00 0.53 0.00 42 988.4
20260831154957 23 352 0.0 4.8 0.00 0.53 0.00 41 988.3
20260831154456 23 307 0.0 4.8 0.00 0.53 0.00 41 988.3
20260831153956 23 229 0.0 1.6 0.00 0.53 0.00 40 988.3
20260831153456 23 254 0.0 0.0 0.00 0.53 0.00 40 988.2
20260831152956 23 272 0.0 0.0 0.00 0.53 0.00 42 988.2
20260831152500 22 193 0.0 1.6 0.00 0.53 0.00 42 988.3
20260831152456 22 192 0.0 1.6 0.00 0.53 0.00 40 988.2
20260831151454 22 240 0.0 1.6 0.00 0.53 0.00 42 988.2
20260831150954 22 255 0.0 4.8 0.00 0.53 0.00 45 988.2
20260831150453 22 281 0.0 4.8 0.00 0.53 0.00 43 988.2
20260831145952 21 319 0.0 0.0 0.00 0.53 0.00 41 988.0
20260831145451 21 300 0.0 0.0 0.00 0.53 0.00 43 988.0
20260831144955 21 209 0.0 1.6 0.00 0.53 0.00 44 988.0
20260831144453 20 208 0.0 1.6 0.00 0.53 0.00 46 988.0
20260831143958 19 354 0.0 3.2 0.00 0.53 0.00 53 988.0
20260831143953 19 355 0.0 0.0 0.00 0.53 0.00 51 988.0
20260831143446 19 354 0.0 0.0 0.00 0.53 0.00 53 988.0
20260831143052 19 354 0.0 3.2 0.00 0.53 0.00 54 988.0
20260831141947 19 238 0.0 1.6 0.00 0.53 0.00 54 987.9
20260831141446 19 196 0.0 3.2 0.00 0.53 0.00 48 987.9
20260831140948 18 196 0.0 3.2 0.00 0.53 0.00 50 987.9
20260831140446 18 207 0.0 0.0 0.00 0.53 0.00 50 987.9
20260831135946 18 223 0.0 3.2 0.00 0.53 0.00 51 987.8
20260831135450 18 228 1.6 6.4 0.00 0.53 0.00 51 987.8
20260831135446 18 227 1.6 6.4 0.00 0.53 0.00 52 987.8
20260831134448 17 183 3.2 6.4 0.00 0.53 0.00 54 987.8
20260831134444 18 205 1.6 6.4 0.00 0.53 0.00 53 987.8
20260831133448 16 173 0.0 3.2 0.00 0.53 0.00 58 987.6
20260831133444 17 188 1.6 6.4 0.00 0.53 0.00 57 987.7
20260831132445 16 194 0.0 3.2 0.00 0.53 0.00 58 987.4
20260831131944 16 206 0.0 3.2 0.00 0.53 0.00 57 987.3
20260831131444 16 208 0.0 1.6 0.00 0.53 0.00 57 987.3
20260831130945 16 238 0.0 0.0 0.00 0.53 0.00 60 987.3
20260831130444 16 178 0.0 0.0 0.00 0.53 0.00 57 987.1
20260831125944 16 191 0.0 4.8 0.00 0.53 0.00 55 987.1
20260831125442 16 191 0.0 4.8 0.00 0.53 0.00 55 987.0
20260831124941 16 217 1.6 8.0 0.00 0.53 0.00 55 986.9
20260831124443 16 218 1.6 8.0 0.00 0.53 0.00 55 986.9
20260831123943 17 204 1.6 9.7 0.00 0.53 0.00 54 986.9
20260831123442 17 215 3.2 9.7 0.00 0.53 0.00 54 986.9
20260831122942 17 195 3.2 8.0 0.00 0.53 0.00 54 986.9
20260831122441 17 197 3.2 8.0 0.00 0.53 0.00 53 986.7
20260831121944 17 226 4.8 9.7 0.00 0.53 0.00 53 986.7
20260831121441 17 227 6.4 12.9 0.00 0.53 0.00 53 986.7
20260831120941 17 181 6.4 12.9 0.00 0.53 0.00 53 986.7
20260831120438 17 208 4.8 9.7 0.00 0.53 0.00 53 986.6
20260831115938 17 197 3.2 9.7 0.00 0.53 0.00 54 986.6
20260831115438 17 152 3.2 9.7 0.00 0.53 0.00 54 986.6
20260831114938 17 216 1.6 4.8 0.00 0.53 0.00 54 986.6
20260831114436 17 193 1.6 4.8 0.00 0.53 0.00 55 986.6
20260831113935 17 182 1.6 4.8 0.00 0.53 0.00 56 986.5
20260831113434 16 167 1.6 8.0 0.00 0.53 0.00 56 986.5
20260831112934 17 205 3.2 8.0 0.00 0.53 0.00 56 986.5
20260831112433 16 203 3.2 8.0 0.00 0.53 0.00 57 986.5
20260831111932 16 212 3.2 8.0 0.00 0.53 0.00 57 986.5
20260831111432 16 207 3.2 6.4 0.00 0.53 0.00 58 986.5
20260831110931 16 221 3.2 6.4 0.00 0.53 0.00 59 986.5
20260831110429 16 211 3.2 6.4 0.00 0.53 0.00 61 986.4
20260831105934 15 192 1.6 4.8 0.00 0.53 0.00 63 986.5
20260831105929 15 218 3.2 4.8 0.00 0.53 0.00 62 986.5
20260831104932 15 205 1.6 3.2 0.00 0.53 0.00 64 986.4
20260831104928 15 203 0.0 3.2 0.00 0.53 0.00 64 986.4
20260831103931 15 231 0.0 0.0 0.00 0.53 0.00 64 986.4
20260831103927 15 205 0.0 3.2 0.00 0.53 0.00 64 986.4
20260831103532 15 193 0.0 3.2 0.00 0.53 0.00 65 986.3
20260831103032 15 231 0.0 0.0 0.00 0.53 0.00 64 986.4
20260831101924 15 188 0.0 3.2 0.00 0.53 0.00 64 986.4
20260831101424 15 211 0.0 3.2 0.00 0.53 0.00 65 986.4
20260831100928 15 205 0.0 1.6 0.00 0.53 0.00 68 986.4
20260831100924 15 210 0.0 1.6 0.00 0.53 0.00 66 986.3
20260831095924 15 222 0.0 0.0 0.00 0.53 0.00 68 986.4
20260831095428 15 216 0.0 0.0 0.00 0.53 0.00 67 986.3
20260831095424 15 216 0.0 0.0 0.00 0.53 0.00 67 986.3
20260831094424 15 215 0.0 0.0 0.00 0.53 0.00 67 986.1
20260831093922 15 207 0.0 0.0 0.00 0.53 0.00 67 986.0
20260831093426 15 195 1.6 4.8 0.00 0.53 0.00 67 986.0
20260831093422 15 193 0.0 1.6 0.00 0.53 0.00 68 986.0
20260831092422 15 158 1.6 4.8 0.00 0.53 0.00 67 986.0
20260831091922 15 207 0.0 3.2 0.00 0.53 0.00 68 986.1
20260831091422 15 196 0.0 1.6 0.00 0.53 0.00 68 986.3
20260831090922 14 243 0.0 1.6 0.00 0.53 0.00 72 986.3
20260831090426 14 101 0.0 0.0 0.00 0.53 0.00 72 986.4
20260831090422 14 101 0.0 0.0 0.00 0.53 0.00 72 986.4
20260831090027 14 102 0.0 0.0 0.00 0.53 0.00 73 986.4
20260831084922 13 100 0.0 0.0 0.00 0.53 0.00 74 986.1
20260831084422 13 97 0.0 0.0 0.00 0.53 0.00 74 986.0
20260831083921 13 97 0.0 0.0 0.00 0.53 0.00 74 986.0
20260831083421 14 97 0.0 0.0 0.00 0.53 0.00 74 986.0
20260831082925 14 97 0.0 0.0 0.00 0.53 0.00 74 986.4
20260831082921 14 97 0.0 0.0 0.00 0.53 0.00 73 986.3
20260831081919 15 97 0.0 0.0 0.00 0.53 0.00 73 986.4
20260831081423 16 97 0.0 0.0 0.00 0.53 0.00 67 986.5
20260831081419 15 97 0.0 0.0 0.00 0.53 0.00 70 986.4
20260831080420 16 97 0.0 3.2 0.00 0.53 0.00 64 986.4
20260831075917 16 97 1.6 4.8 0.00 0.53 0.00 62 986.4
20260831075417 16 226 4.8 9.7 0.00 0.53 0.00 62 986.5
20260831074921 16 182 3.2 9.7 0.00 0.53 0.00 64 986.5
20260831074917 16 220 4.8 9.7 0.00 0.53 0.00 63 986.4
20260831074523 16 212 1.6 4.8 0.00 0.53 0.00 65 986.6
20260831073922 16 231 4.8 12.9 0.00 0.53 0.00 63 986.5
20260831073418 16 203 1.6 6.4 0.00 0.53 0.00 64 986.5
20260831072417 16 224 6.4 12.9 0.00 0.53 0.00 63 986.6
20260831071918 16 219 8.0 12.9 0.00 0.53 0.00 63 986.6
20260831071416 16 212 8.0 14.5 0.00 0.53 0.00 64 986.6
20260831070915 16 226 6.4 14.5 0.00 0.53 0.00 63 986.6
20260831070415 16 228 6.4 12.9 0.00 0.53 0.00 65 986.6
20260831065921 16 203 6.4 14.5 0.00 0.53 0.00 66 986.7
20260831065916 16 196 8.0 14.5 0.00 0.53 0.00 65 986.6
20260831064912 16 193 4.8 11.3 0.00 0.53 0.00 67 987.0
20260831064415 16 214 6.4 14.5 0.00 0.53 0.00 67 987.2
20260831064411 16 211 6.4 14.5 0.00 0.53 0.00 67 987.0
20260831063412 16 203 6.4 11.3 0.00 0.53 0.00 69 987.2
20260831062911 16 222 4.8 11.3 0.00 0.53 0.00 72 987.2
20260831062410 15 252 4.8 12.9 0.00 0.53 0.00 83 987.2
20260831061911 14 210 4.8 12.9 0.00 0.53 0.00 92 987.3
20260831061410 13 201 4.8 11.3 0.00 0.53 0.00 92 987.3
20260831060910 13 199 4.8 9.7 0.00 0.53 0.00 93 987.4
20260831060409 13 203 6.4 16.1 0.00 0.53 0.00 92 987.6
20260831055910 13 145 6.4 16.1 0.00 0.53 0.53 93 987.7
20260831055408 13 197 4.8 9.7 0.00 0.53 0.53 93 987.8
20260831054908 13 198 3.2 9.7 0.00 0.53 0.53 92 987.9
20260831054408 13 174 3.2 8.0 0.00 0.53 0.53 93 987.8
20260831053908 13 193 1.6 8.0 0.03 0.53 0.53 93 987.9
20260831053408 13 224 1.6 6.4 0.03 0.53 0.53 92 987.9
20260831052908 13 245 3.2 8.0 0.05 0.53 0.53 92 987.8
20260831052410 13 217 1.6 8.0 0.08 0.53 0.53 93 987.6
20260831051908 13 180 0.0 8.0 0.10 0.53 0.53 93 987.4
20260831051408 13 172 1.6 8.0 0.13 0.53 0.53 93 987.3
20260831050913 13 188 3.2 9.7 0.13 0.53 0.53 92 987.4
20260831050909 13 207 3.2 8.0 0.13 0.53 0.53 93 987.3
20260831045908 13 208 3.2 9.7 0.13 0.53 0.53 92 987.3
20260831045408 13 191 3.2 11.3 0.13 0.53 0.53 92 987.4
20260831044912 13 131 9.7 17.7 0.13 0.53 0.53 91 987.4
20260831044908 13 217 6.4 17.7 0.13 0.53 0.53 92 987.2
20260831043909 13 162 8.0 16.1 0.10 0.51 0.53 91 987.8
20260831043409 14 213 8.0 14.5 0.10 0.51 0.51 90 988.3
20260831042910 14 199 9.7 20.9 0.08 0.48 0.48 89 988.3
20260831042409 15 195 6.4 20.9 0.05 0.46 0.46 87 988.4
20260831041908 16 206 3.2 17.7 0.03 0.43 0.43 82 988.5
20260831041642 18 244 4.8 12.9 0.00 0.41 0.41 59 987.9
20260831041636 18 68 3.2 11.3 0.00 0.41 0.43 62 988.5
20260831040411 17 205 0.0 0.0 0.00 0.41 0.41 73 987.3
20260831040406 17 189 3.2 12.9 0.00 0.41 0.41 62 987.8
20260831035906 16 206 0.0 8.0 0.00 0.41 0.41 75 987.8
20260831035512 17 205 0.0 0.0 0.00 0.41 0.41 71 987.3
20260831034410 17 206 0.0 3.2 0.00 0.41 0.41 68 987.1
20260831034406 17 205 0.0 0.0 0.00 0.41 0.41 67 987.1
20260831033406 17 205 0.0 3.2 0.00 0.41 0.41 68 987.1
20260831032910 17 205 1.6 4.8 0.00 0.41 0.41 66 987.1
20260831032906 17 171 0.0 4.8 0.00 0.41 0.41 67 987.1
20260831031905 17 193 0.0 4.8 0.00 0.41 0.41 67 987.1
20260831031406 17 315 1.6 11.3 0.00 0.41 0.41 67 987.1
20260831030906 18 233 1.6 11.3 0.00 0.41 0.41 67 987.1
20260831030406 17 354 1.6 8.0 0.00 0.41 0.41 65 986.7
20260831025906 17 278 0.0 4.8 0.00 0.41 0.41 69 987.3
20260831025405 17 182 0.0 1.6 0.00 0.41 0.41 71 987.4
20260831024906 17 288 0.0 0.0 0.00 0.41 0.41 74 987.3
20260831024405 17 211 0.0 0.0 0.00 0.41 0.41 72 987.2
20260831023906 17 211 0.0 0.0 0.00 0.41 0.41 72 987.1
20260831023409 17 238 0.0 6.4 0.00 0.41 0.41 66 986.7
20260831023405 17 238 0.0 6.4 0.00 0.41 0.41 66 986.9
20260831022408 16 205 0.0 3.2 0.00 0.41 0.41 73 986.5
20260831022404 16 210 0.0 6.4 0.00 0.41 0.41 71 986.7
20260831021403 16 196 0.0 0.0 0.00 0.41 0.41 75 986.3
20260831020907 16 195 0.0 0.0 0.00 0.41 0.41 75 986.0
20260831020904 16 196 0.0 0.0 0.00 0.41 0.41 75 986.3
20260831020509 16 196 0.0 0.0 0.00 0.41 0.41 76 985.8
20260831015903 16 196 0.0 0.0 0.00 0.41 0.41 74 985.8
20260831014904 16 196 0.0 0.0 0.00 0.41 0.41 75 985.9
20260831014404 16 196 0.0 3.2 0.00 0.41 0.41 75 985.9
20260831013903 16 196 1.6 6.4 0.00 0.41 0.41 75 985.8
20260831013404 16 203 1.6 6.4 0.00 0.41 0.41 76 985.8
20260831012904 16 195 1.6 6.4 0.00 0.41 0.41 76 985.8
20260831012404 16 159 1.6 4.8 0.00 0.41 0.41 76 985.8
20260831011908 16 165 1.6 4.8 0.00 0.41 0.41 77 985.8
20260831011904 16 181 1.6 4.8 0.00 0.41 0.41 77 985.8
20260831010903 16 187 1.6 4.8 0.00 0.41 0.41 77 985.8
20260831010403 16 169 1.6 8.0 0.00 0.41 0.41 78 985.8
20260831005904 16 179 3.2 8.0 0.00 0.41 0.41 79 985.9
20260831005407 16 174 1.6 6.4 0.00 0.41 0.41 79 986.3
20260831005403 16 168 1.6 8.0 0.00 0.41 0.41 80 986.1
20260831004403 16 156 1.6 6.4 0.00 0.41 0.41 80 986.1
20260831003903 17 183 1.6 6.4 0.00 0.41 0.41 80 986.0
20260831003403 17 194 1.6 4.8 0.00 0.41 0.41 81 986.3
20260831002903 16 176 0.0 3.2 0.00 0.41 0.41 81 986.3
20260831002403 16 218 0.0 3.2 0.00 0.41 0.41 80 986.3
20260831001901 16 200 1.6 6.4 0.00 0.41 0.41 82 986.4
20260831001401 16 153 1.6 6.4 0.00 0.41 0.41 81 986.5
20260831000902 16 155 0.0 1.6 0.00 0.41 0.41 81 986.6
20260831000858 16 187 0.0 3.2 0.00 0.41 0.41 80 986.5
20260830235855 16 123 0.0 3.2 0.00 0.41 0.41 84 986.6
20260830235355 16 128 0.0 3.2 0.00 0.41 0.41 83 986.5
20260830234855 16 202 0.0 3.2 0.00 0.41 0.41 82 986.6
20260830234355 16 32 0.0 0.0 0.00 0.41 0.41 82 986.5
20260830233859 16 32 0.0 3.2 0.05 0.41 0.41 83 987.1
20260830233855 16 32 0.0 0.0 0.03 0.41 0.41 83 986.9
20260830232856 16 172 1.6 8.0 0.18 0.41 0.41 83 987.2
20260830232354 16 171 1.6 8.0 0.28 0.41 0.41 83 987.3
20260830231853 16 178 1.6 8.0 0.28 0.41 0.41 83 987.1
20260830231353 16 191 0.0 4.8 0.28 0.41 0.41 81 986.6
20260830230857 16 330 0.0 1.6 0.30 0.41 0.41 79 986.5
20260830230853 16 307 0.0 0.0 0.28 0.41 0.41 78 986.5
20260830225854 16 345 0.0 1.6 0.30 0.41 0.41 81 986.6
20260830225344 16 345 0.0 3.2 0.36 0.41 0.41 83 986.5
20260830224843 16 350 0.0 3.2 0.36 0.41 0.41 81 986.7
20260830224341 16 336 0.0 3.2 0.41 0.41 0.41 80 987.0
20260830223843 16 323 0.0 1.6 0.38 0.38 0.38 80 987.3
20260830223342 16 283 1.6 6.4 0.36 0.36 0.36 79 987.4
20260830222841 16 235 1.6 9.7 0.23 0.23 0.25 78 987.6
20260830222339 16 207 1.6 9.7 0.13 0.13 0.13 76 987.4
20260830221839 16 317 1.6 6.4 0.13 0.13 0.13 75 987.0
20260830221339 16 2 0.0 6.4 0.13 0.13 0.13 76 986.6
20260830220844 17 353 3.2 11.3 0.08 0.08 0.10 67 986.9
20260830220839 16 335 1.6 6.4 0.13 0.13 0.13 76 986.6
20260830220339 17 352 3.2 9.7 0.10 0.10 0.10 71 986.7
20260830215340 18 313 6.4 20.9 0.05 0.05 0.05 61 987.2
20260830214838 20 310 8.0 22.5 0.05 0.05 0.05 56 987.1
20260830214340 21 329 9.7 22.5 0.00 0.00 0.00 48 986.9
20260830213839 22 352 12.9 30.6 0.00 0.00 0.00 43 986.4
20260830213339 24 1 6.4 30.6 0.00 0.00 0.00 38 985.8
20260830212839 26 0 1.6 27.4 0.00 0.00 0.00 34 985.3
20260830212338 26 209 1.6 27.4 0.00 0.00 0.00 33 984.5
20260830211837 27 266 1.6 8.0 0.00 0.00 0.00 31 984.4
20260830211342 27 129 1.6 9.7 0.00 0.00 0.00 31 984.3
20260830211337 27 213 1.6 8.0 0.00 0.00 0.00 31 984.4
20260830210837 27 218 0.0 3.2 0.00 0.00 0.00 31 984.4
20260830210443 27 209 4.8 12.9 0.00 0.00 0.00 31 984.4
20260830205337 27 179 6.4 14.5 0.00 0.00 0.00 31 984.3
20260830204837 27 219 6.4 16.1 0.00 0.00 0.00 31 984.3
20260830204337 27 176 6.4 16.1 0.00 0.00 0.00 32 984.1
20260830203837 27 164 6.4 17.7 0.00 0.00 0.00 31 984.3
20260830203336 27 212 8.0 22.5 0.00 0.00 0.00 32 984.4
20260830202835 27 212 8.0 22.5 0.00 0.00 0.00 30 984.4
20260830202335 27 172 3.2 14.5 0.00 0.00 0.00 30 984.3
20260830201837 27 145 1.6 9.7 0.00 0.00 0.00 32 984.4
20260830201335 27 186 0.0 9.7 0.00 0.00 0.00 32 984.4
20260830200839 27 182 1.6 8.0 0.00 0.00 0.00 35 984.3
20260830200835 27 222 0.0 6.4 0.00 0.00 0.00 34 984.3
20260830200440 27 177 1.6 8.0 0.00 0.00 0.00 34 984.3
20260830195333 27 127 0.0 4.8 0.00 0.00 0.00 35 984.1
20260830194837 26 192 1.6 8.0 0.00 0.00 0.00 35 984.3
20260830194833 27 172 1.6 8.0 0.00 0.00 0.00 34 984.1
20260830193831 27 165 1.6 8.0 0.00 0.00 0.00 34 984.3
20260830193331 27 126 0.0 8.0 0.00 0.00 0.00 34 984.4
20260830192836 26 148 0.0 3.2 0.00 0.00 0.00 33 984.5
20260830192831 27 148 0.0 8.0 0.00 0.00 0.00 34 984.4
20260830192331 27 110 0.0 1.6 0.00 0.00 0.00 34 984.5
20260830191937 26 213 0.0 3.2 0.00 0.00 0.00 33 984.5
20260830190829 26 233 0.0 1.6 0.00 0.00 0.00 33 984.6
20260830190329 26 270 0.0 3.2 0.00 0.00 0.00 32 984.7
20260830185830 26 143 0.0 3.2 0.00 0.00 0.00 33 984.7
20260830185328 26 332 0.0 1.6 0.00 0.00 0.00 34 984.6
20260830184827 26 352 0.0 8.0 0.00 0.00 0.00 33 984.8
20260830184327 26 150 1.6 8.0 0.00 0.00 0.00 34 985.0
20260830183828 26 241 3.2 6.4 0.00 0.00 0.00 33 985.0
20260830183326 26 176 1.6 12.9 0.00 0.00 0.00 31 985.0
20260830182827 26 153 1.6 12.9 0.00 0.00 0.00 32 985.0
20260830182327 26 344 0.0 4.8 0.00 0.00 0.00 31 985.1
20260830181827 26 212 1.6 8.0 0.00 0.00 0.00 31 985.1
20260830181823 26 147 0.0 8.0 0.00 0.00 0.00 33 985.2
20260830181428 25 235 0.0 4.8 0.00 0.00 0.00 36 985.3
20260830180326 25 350 0.0 4.8 0.00 0.00 0.00 36 985.3
20260830180322 25 20 0.0 1.6 0.00 0.00 0.00 38 985.4
20260830175320 25 314 0.0 1.6 0.00 0.00 0.00 38 985.4
20260830174820 25 193 0.0 1.6 0.00 0.00 0.00 38 985.6
20260830174321 24 203 0.0 3.2 0.00 0.00 0.00 39 985.7
20260830173821 24 355 0.0 3.2 0.00 0.00 0.00 39 985.8
20260830173320 24 326 0.0 1.6 0.00 0.00 0.00 41 985.7
20260830172821 23 316 0.0 8.0 0.00 0.00 0.00 41 985.7
20260830172325 23 355 1.6 8.0 0.00 0.00 0.00 42 985.9
20260830172321 23 357 1.6 8.0 0.00 0.00 0.00 41 985.8
20260830171930 23 347 3.2 9.7 0.00 0.00 0.00 43 986.1
20260830171926 23 18 1.6 8.0 0.00 0.00 0.00 41 986.0
20260830170321 23 348 3.2 9.7 0.00 0.00 0.00 42 986.0
20260830165820 23 13 1.6 6.4 0.00 0.00 0.00 42 986.0
20260830165320 23 6 0.0 4.8 0.00 0.00 0.00 41 986.0
20260830164821 23 349 1.6 4.8 0.00 0.00 0.00 42 986.1
20260830164320 23 257 1.6 4.8 0.00 0.00 0.00 41 986.1
20260830163820 23 214 0.0 4.8 0.00 0.00 0.00 41 986.1